Time,TemperatureF,DewpointF,PressureIn,WindDirection,WindDirectionDegrees,WindSpeedMPH,WindSpeedGustMPH,Humidity,HourlyPrecipIn,Conditions,Clouds,dailyrainin,SoftwareType,DateUTC
2013-09-11 00:03:00,56.7,48.8,29.82,SW,225,1.2,1.2,75,0.00,CLR,,0.00,WeatherDisplay:10.37,2013-09-11 07:03:00,
2013-09-11 00:08:00,56.8,49.0,29.83,SW,225,3.5,0.0,75,0.00,CLR,,0.00,WeatherDisplay:10.37,2013-09-11 07:08:00,
2013-09-11 00:13:00,56.8,49.0,29.83,South,180,1.2,0.0,75,0.00,CLR,,0.00,WeatherDisplay:10.37,2013-09-11 07:13:00,
2013-09-11 00:18:00,56.8,49.4,29.83,South,180,1.2,1.2,76,0.00,CLR,,0.00,WeatherDisplay:10.37,2013-09-11 07:18:00,
2013-09-11 00:23:00,56.8,49.4,29.83,South,180,1.2,0.0,76,0.00,CLR,,0.00,WeatherDisplay:10.37,2013-09-11 07:23:00,
2013-09-11 00:28:00,57.0,49.5,29.83,North,0,1.2,0.0,76,0.00,CLR,,0.00,WeatherDisplay:10.37,2013-09-11 07:28:00,
2013-09-11 00:33:00,57.0,49.5,29.83,South,180,3.5,3.5,76,0.00,CLR,,0.00,WeatherDisplay:10.37,2013-09-11 07:33:00,
2013-09-11 00:38:00,57.0,49.5,29.83,SW,225,3.5,0.0,76,0.00,CLR,,0.00,WeatherDisplay:10.37,2013-09-11 07:38:00,
2013-09-11 00:43:00,57.0,49.5,29.83,South,180,3.5,3.5,76,0.00,CLR,,0.00,WeatherDisplay:10.37,2013-09-11 07:43:00,
2013-09-11 00:48:00,57.0,49.5,29.83,South,180,3.5,3.5,76,0.00,CLR,,0.00,WeatherDisplay:10.37,2013-09-11 07:48:00,
2013-09-11 00:53:00,57.0,49.5,29.83,SW,225,5.8,5.8,76,0.00,CLR,,0.00,WeatherDisplay:10.37,2013-09-11 07:53:00,
2013-09-11 00:58:00,56.8,49.4,29.84,South,180,8.1,8.1,76,0.00,CLR,,0.00,WeatherDisplay:10.37,2013-09-11 07:58:00,
2013-09-11 01:03:00,56.8,49.4,29.83,SW,225,4.6,4.6,76,0.00,CLR,,0.00,WeatherDisplay:10.37,2013-09-11 08:03:00,
2013-09-11 01:08:00,56.8,49.4,29.83,SW,225,5.8,5.8,76,0.00,CLR,,0.00,WeatherDisplay:10.37,2013-09-11 08:08:00,
2013-09-11 01:13:00,56.8,49.4,29.83,SW,225,3.5,3.5,76,0.00,CLR,,0.00,WeatherDisplay:10.37,2013-09-11 08:13:00,
2013-09-11 01:18:00,56.8,49.4,29.83,SW,225,2.3,2.3,76,0.00,CLR,,0.00,WeatherDisplay:10.37,2013-09-11 08:18:00,
2013-09-11 01:23:00,56.8,49.4,29.83,SW,225,2.3,2.3,76,0.00,CLR,,0.00,WeatherDisplay:10.37,2013-09-11 08:23:00,
2013-09-11 01:28:00,56.8,49.4,29.83,South,180,4.6,4.6,76,0.00,CLR,,0.00,WeatherDisplay:10.37,2013-09-11 08:28:00,
2013-09-11 01:33:00,56.8,49.4,29.83,South,180,3.5,3.5,76,0.00,CLR,,0.00,WeatherDisplay:10.37,2013-09-11 08:33:00,
2013-09-11 01:38:00,56.8,49.4,29.83,SW,225,2.3,2.3,76,0.00,CLR,,0.00,WeatherDisplay:10.37,2013-09-11 08:38:00,
2013-09-11 01:43:00,56.8,49.4,29.83,SW,225,1.2,0.0,76,0.00,CLR,,0.00,WeatherDisplay:10.37,2013-09-11 08:43:00,
2013-09-11 01:48:00,56.8,49.4,29.83,South,180,2.3,2.3,76,0.00,CLR,,0.00,WeatherDisplay:10.37,2013-09-11 08:48:00,
2013-09-11 01:53:00,56.8,49.4,29.83,South,180,1.2,0.0,76,0.00,CLR,,0.00,WeatherDisplay:10.37,2013-09-11 08:53:00,
2013-09-11 01:58:00,57.0,49.5,29.83,South,180,1.2,1.6,76,0.00,CLR,,0.00,WeatherDisplay:10.37,2013-09-11 08:58:00,
2013-09-11 02:03:00,57.0,49.5,29.84,SW,225,2.3,2.3,76,0.00,CLR,,0.00,WeatherDisplay:10.37,2013-09-11 09:03:00,
2013-09-11 02:08:00,56.8,49.4,29.83,South,180,1.2,0.0,76,0.00,CLR,,0.00,WeatherDisplay:10.37,2013-09-11 09:08:00,
2013-09-11 02:13:00,57.0,49.5,29.83,South,180,1.2,0.0,76,0.00,CLR,,0.00,WeatherDisplay:10.37,2013-09-11 09:13:00,
2013-09-11 02:18:00,57.0,49.5,29.83,South,180,0.0,0.0,76,0.00,CLR,,0.00,WeatherDisplay:10.37,2013-09-11 09:18:00,
2013-09-11 02:23:00,57.2,49.7,29.83,South,180,1.2,0.0,76,0.00,CLR,,0.00,WeatherDisplay:10.37,2013-09-11 09:23:00,
2013-09-11 02:28:00,57.2,49.3,29.83,North,0,0.0,0.0,75,0.00,CLR,,0.00,WeatherDisplay:10.37,2013-09-11 09:28:00,
2013-09-11 02:33:00,57.2,49.3,29.83,NW,315,1.2,0.0,75,0.00,CLR,,0.00,WeatherDisplay:10.37,2013-09-11 09:33:00,
2013-09-11 02:38:00,57.2,49.3,29.83,NW,315,0.0,0.0,75,0.00,CLR,,0.00,WeatherDisplay:10.37,2013-09-11 09:38:00,
2013-09-11 02:43:00,57.2,49.3,29.83,West,270,0.0,0.0,75,0.00,CLR,,0.00,WeatherDisplay:10.37,2013-09-11 09:43:00,
2013-09-11 02:48:00,57.2,49.3,29.83,West,270,1.2,0.0,75,0.00,CLR,,0.00,WeatherDisplay:10.37,2013-09-11 09:48:00,
2013-09-11 02:53:00,57.2,49.3,29.83,NW,315,1.2,0.0,75,0.00,CLR,,0.00,WeatherDisplay:10.37,2013-09-11 09:53:00,
2013-09-11 02:58:00,57.2,49.3,29.83,West,270,1.2,0.0,75,0.00,CLR,,0.00,WeatherDisplay:10.37,2013-09-11 09:58:00,
2013-09-11 03:03:00,57.4,49.5,29.83,NE,45,1.2,0.0,75,0.00,CLR,,0.00,WeatherDisplay:10.37,2013-09-11 10:03:00,
2013-09-11 03:08:00,57.4,49.5,29.84,West,270,1.2,0.0,75,0.00,CLR,,0.00,WeatherDisplay:10.37,2013-09-11 10:08:00,
2013-09-11 03:13:00,57.4,49.5,29.84,NE,45,1.2,1.2,75,0.00,CLR,,0.00,WeatherDisplay:10.37,2013-09-11 10:13:00,
2013-09-11 03:18:00,57.2,49.3,29.83,NE,45,1.6,0.0,75,0.00,CLR,,0.00,WeatherDisplay:10.37,2013-09-11 10:18:00,
2013-09-11 03:23:00,57.2,49.3,29.83,North,0,1.2,1.2,75,0.00,CLR,,0.00,WeatherDisplay:10.37,2013-09-11 10:23:00,
2013-09-11 03:28:00,57.2,49.3,29.84,NW,315,1.2,1.2,75,0.00,CLR,,0.00,WeatherDisplay:10.37,2013-09-11 10:28:00,
2013-09-11 03:33:00,57.2,49.3,29.84,NW,315,1.2,0.0,75,0.00,CLR,,0.00,WeatherDisplay:10.37,2013-09-11 10:33:00,
2013-09-11 03:39:00,57.2,49.3,29.84,East,90,1.2,0.0,75,0.00,CLR,,0.00,WeatherDisplay:10.37,2013-09-11 10:39:00,
2013-09-11 03:44:00,57.4,49.5,29.84,SE,135,0.0,0.0,75,0.00,CLR,,0.00,WeatherDisplay:10.37,2013-09-11 10:44:00,
2013-09-11 03:49:00,57.4,49.5,29.84,South,180,1.2,1.2,75,0.00,CLR,,0.00,WeatherDisplay:10.37,2013-09-11 10:49:00,
2013-09-11 03:54:00,57.4,49.2,29.84,South,180,1.2,0.0,74,0.00,CLR,,0.00,WeatherDisplay:10.37,2013-09-11 10:54:00,
2013-09-11 03:59:00,57.4,49.2,29.84,South,180,0.0,0.0,74,0.00,CLR,,0.00,WeatherDisplay:10.37,2013-09-11 10:59:00,
2013-09-11 04:04:00,57.6,49.3,29.84,South,180,0.0,0.0,74,0.00,CLR,,0.00,WeatherDisplay:10.37,2013-09-11 11:04:00,
2013-09-11 04:09:00,57.6,49.3,29.84,South,180,0.0,0.0,74,0.00,CLR,,0.00,WeatherDisplay:10.37,2013-09-11 11:09:00,
2013-09-11 04:14:00,57.6,49.3,29.84,South,180,0.0,0.0,74,0.00,CLR,,0.00,WeatherDisplay:10.37,2013-09-11 11:14:00,
2013-09-11 04:19:00,57.6,49.7,29.85,South,180,0.0,0.0,75,0.00,CLR,,0.00,WeatherDisplay:10.37,2013-09-11 11:19:00,
2013-09-11 04:24:00,57.6,49.7,29.85,NW,315,0.0,0.0,75,0.00,CLR,,0.00,WeatherDisplay:10.37,2013-09-11 11:24:00,
2013-09-11 04:29:00,57.7,49.9,29.85,West,270,0.0,0.0,75,0.00,CLR,,0.00,WeatherDisplay:10.37,2013-09-11 11:29:00,
2013-09-11 04:34:00,57.7,49.9,29.85,North,0,0.0,0.0,75,0.00,CLR,,0.00,WeatherDisplay:10.37,2013-09-11 11:34:00,
2013-09-11 04:39:00,57.7,49.9,29.84,West,270,0.0,0.0,75,0.00,CLR,,0.00,WeatherDisplay:10.37,2013-09-11 11:39:00,
2013-09-11 04:44:00,57.7,49.9,29.85,SW,225,0.0,0.0,75,0.00,CLR,,0.00,WeatherDisplay:10.37,2013-09-11 11:44:00,
2013-09-11 04:49:00,57.7,49.9,29.85,SW,225,1.2,1.2,75,0.00,CLR,,0.00,WeatherDisplay:10.37,2013-09-11 11:49:00,
2013-09-11 04:54:00,57.7,49.9,29.85,SW,225,1.2,0.0,75,0.00,CLR,,0.00,WeatherDisplay:10.37,2013-09-11 11:54:00,
2013-09-11 04:59:00,57.7,49.9,29.85,SW,225,1.2,0.0,75,0.00,CLR,,0.00,WeatherDisplay:10.37,2013-09-11 11:59:00,
2013-09-11 05:04:00,57.7,49.9,29.85,SW,225,1.6,1.6,75,0.00,CLR,,0.00,WeatherDisplay:10.37,2013-09-11 12:04:00,
2013-09-11 05:09:00,57.7,49.9,29.85,SW,225,1.2,0.0,75,0.00,CLR,,0.00,WeatherDisplay:10.37,2013-09-11 12:09:00,
2013-09-11 05:14:00,57.7,49.9,29.85,West,270,1.2,0.0,75,0.00,CLR,,0.00,WeatherDisplay:10.37,2013-09-11 12:14:00,
2013-09-11 05:19:00,57.7,49.9,29.86,West,270,1.2,0.0,75,0.00,CLR,,0.00,WeatherDisplay:10.37,2013-09-11 12:19:00,
2013-09-11 05:24:00,57.7,49.9,29.85,SW,225,1.2,1.2,75,0.00,CLR,,0.00,WeatherDisplay:10.37,2013-09-11 12:24:00,
2013-09-11 05:29:00,57.7,49.9,29.85,SW,225,3.5,3.5,75,0.00,CLR,,0.00,WeatherDisplay:10.37,2013-09-11 12:29:00,
2013-09-11 05:34:00,57.6,49.7,29.86,South,180,3.5,3.5,75,0.00,CLR,,0.00,WeatherDisplay:10.37,2013-09-11 12:34:00,
2013-09-11 05:39:00,57.6,49.7,29.86,SW,225,1.2,1.2,75,0.00,CLR,,0.00,WeatherDisplay:10.37,2013-09-11 12:39:00,
2013-09-11 05:44:00,57.6,49.7,29.86,SW,225,1.2,0.0,75,0.00,CLR,,0.00,WeatherDisplay:10.37,2013-09-11 12:44:00,
2013-09-11 05:49:00,57.6,49.7,29.86,SW,225,3.5,0.0,75,0.00,CLR,,0.00,WeatherDisplay:10.37,2013-09-11 12:49:00,
2013-09-11 05:54:00,57.4,49.5,29.86,SW,225,4.6,4.6,75,0.00,CLR,,0.00,WeatherDisplay:10.37,2013-09-11 12:54:00,
2013-09-11 05:59:00,57.4,49.5,29.87,SW,225,3.5,3.5,75,0.00,CLR,,0.00,WeatherDisplay:10.37,2013-09-11 12:59:00,
2013-09-11 06:04:00,57.4,49.9,29.86,SW,225,2.3,2.3,76,0.00,CLR,,0.00,WeatherDisplay:10.37,2013-09-11 13:04:00,
2013-09-11 06:09:00,57.2,49.7,29.87,SW,225,2.3,2.3,76,0.00,CLR,,0.00,WeatherDisplay:10.37,2013-09-11 13:09:00,
2013-09-11 06:14:00,57.2,49.7,29.87,South,180,3.5,3.5,76,0.00,CLR,,0.00,WeatherDisplay:10.37,2013-09-11 13:14:00,
2013-09-11 06:19:00,57.2,49.7,29.88,SW,225,2.3,2.3,76,0.00,CLR,,0.00,WeatherDisplay:10.37,2013-09-11 13:19:00,
2013-09-11 06:24:00,57.2,49.7,29.87,South,180,1.2,0.0,76,0.00,CLR,,0.00,WeatherDisplay:10.37,2013-09-11 13:24:00,
2013-09-11 06:29:00,57.2,49.7,29.88,NW,315,1.6,1.6,76,0.00,CLR,,0.00,WeatherDisplay:10.37,2013-09-11 13:29:00,
2013-09-11 06:34:00,57.4,49.9,29.88,NE,45,1.2,1.2,76,0.00,CLR,,0.00,WeatherDisplay:10.37,2013-09-11 13:34:00,
2013-09-11 06:39:00,57.4,49.9,29.88,South,180,0.0,0.0,76,0.00,CLR,,0.00,WeatherDisplay:10.37,2013-09-11 13:39:00,
2013-09-11 06:44:00,57.6,50.0,29.88,South,180,1.2,0.0,76,0.00,CLR,,0.00,WeatherDisplay:10.37,2013-09-11 13:44:00,
2013-09-11 06:49:00,57.6,50.0,29.88,South,180,1.2,0.0,76,0.00,CLR,,0.00,WeatherDisplay:10.37,2013-09-11 13:49:00,
2013-09-11 06:54:00,57.6,50.0,29.88,SE,135,1.2,0.0,76,0.00,CLR,,0.00,WeatherDisplay:10.37,2013-09-11 13:54:00,
2013-09-11 06:59:00,57.6,50.0,29.88,SE,135,1.2,0.0,76,0.00,CLR,,0.00,WeatherDisplay:10.37,2013-09-11 13:59:00,
2013-09-11 07:04:00,57.6,50.0,29.88,SE,135,0.0,0.0,76,0.00,CLR,,0.00,WeatherDisplay:10.37,2013-09-11 14:04:00,
2013-09-11 07:09:00,57.6,50.0,29.89,SE,135,0.0,0.0,76,0.00,CLR,,0.00,WeatherDisplay:10.37,2013-09-11 14:09:00,
2013-09-11 07:14:00,57.6,50.0,29.89,NE,45,1.2,0.0,76,0.00,CLR,,0.00,WeatherDisplay:10.37,2013-09-11 14:14:00,
2013-09-11 07:19:00,57.7,50.2,29.88,East,90,0.0,0.0,76,0.00,CLR,,0.00,WeatherDisplay:10.37,2013-09-11 14:19:00,
2013-09-11 07:24:00,57.7,50.2,29.89,North,0,1.2,0.0,76,0.00,CLR,,0.00,WeatherDisplay:10.37,2013-09-11 14:24:00,
2013-09-11 07:29:00,57.9,50.4,29.89,NE,45,1.2,0.0,76,0.00,CLR,,0.00,WeatherDisplay:10.37,2013-09-11 14:29:00,
2013-09-11 07:34:00,57.9,50.8,29.89,East,90,1.2,0.0,77,0.00,CLR,,0.00,WeatherDisplay:10.37,2013-09-11 14:34:00,
2013-09-11 07:39:00,58.1,50.9,29.89,East,90,0.0,0.0,77,0.00,CLR,,0.00,WeatherDisplay:10.37,2013-09-11 14:39:00,
2013-09-11 07:44:00,58.1,50.6,29.89,NE,45,1.2,0.0,76,0.00,CLR,,0.00,WeatherDisplay:10.37,2013-09-11 14:44:00,
2013-09-11 07:50:00,58.3,51.1,29.89,NE,45,1.2,0.0,77,0.00,CLR,,0.00,WeatherDisplay:10.37,2013-09-11 14:50:00,
2013-09-11 07:55:00,58.5,50.9,29.89,North,0,0.0,0.0,76,0.00,CLR,,0.00,WeatherDisplay:10.37,2013-09-11 14:55:00,
2013-09-11 08:00:00,58.5,50.9,29.89,NE,45,1.2,0.0,76,0.00,CLR,,0.00,WeatherDisplay:10.37,2013-09-11 15:00:00,
2013-09-11 08:05:00,58.6,51.1,29.89,NW,315,1.2,0.0,76,0.00,CLR,,0.00,WeatherDisplay:10.37,2013-09-11 15:05:00,
2013-09-11 08:10:00,58.6,51.1,29.89,NE,45,1.2,0.0,76,0.00,CLR,,0.00,WeatherDisplay:10.37,2013-09-11 15:10:00,
2013-09-11 08:15:00,58.8,51.3,29.89,East,90,1.2,0.0,76,0.00,CLR,,0.00,WeatherDisplay:10.37,2013-09-11 15:15:00,
2013-09-11 08:20:00,59.0,51.4,29.89,West,270,0.0,0.0,76,0.00,CLR,,0.00,WeatherDisplay:10.37,2013-09-11 15:20:00,
2013-09-11 08:25:00,59.0,51.4,29.89,North,0,1.2,0.0,76,0.00,CLR,,0.00,WeatherDisplay:10.37,2013-09-11 15:25:00,
2013-09-11 08:30:00,59.2,51.6,29.89,North,0,1.2,0.0,76,0.00,CLR,,0.00,WeatherDisplay:10.37,2013-09-11 15:30:00,
2013-09-11 08:35:00,59.4,51.8,29.90,North,0,1.2,0.0,76,0.00,CLR,,0.00,WeatherDisplay:10.37,2013-09-11 15:35:00,
2013-09-11 08:40:00,59.5,52.0,29.89,North,0,1.2,0.0,76,0.00,CLR,,0.00,WeatherDisplay:10.37,2013-09-11 15:40:00,
2013-09-11 08:45:00,59.7,52.1,29.89,North,0,1.2,0.0,76,0.00,CLR,,0.00,WeatherDisplay:10.37,2013-09-11 15:45:00,
2013-09-11 08:50:00,59.9,52.0,29.90,East,90,1.2,0.0,75,0.00,CLR,,0.00,WeatherDisplay:10.37,2013-09-11 15:50:00,
2013-09-11 08:55:00,60.1,52.1,29.89,North,0,1.2,0.0,75,0.00,CLR,,0.00,WeatherDisplay:10.37,2013-09-11 15:55:00,
2013-09-11 09:00:00,60.3,52.3,29.90,NW,315,1.2,0.0,75,0.00,CLR,,0.00,WeatherDisplay:10.37,2013-09-11 16:00:00,
2013-09-11 09:05:00,60.3,52.3,29.90,North,0,1.2,0.0,75,0.00,CLR,,0.00,WeatherDisplay:10.37,2013-09-11 16:05:00,
2013-09-11 09:10:00,60.4,52.1,29.90,East,90,2.2,2.2,74,0.00,CLR,,0.00,WeatherDisplay:10.37,2013-09-11 16:10:00,
2013-09-11 09:15:00,60.4,52.1,29.90,North,0,1.2,0.0,74,0.00,CLR,,0.00,WeatherDisplay:10.37,2013-09-11 16:15:00,
2013-09-11 09:20:00,60.4,52.1,29.90,West,270,1.2,0.0,74,0.00,CLR,,0.00,WeatherDisplay:10.37,2013-09-11 16:20:00,
2013-09-11 09:25:00,60.6,52.3,29.89,NW,315,1.2,0.0,74,0.00,CLR,,0.00,WeatherDisplay:10.37,2013-09-11 16:25:00,
2013-09-11 09:30:00,60.8,52.1,29.90,NE,45,1.2,0.0,73,0.00,CLR,,0.00,WeatherDisplay:10.37,2013-09-11 16:30:00,
2013-09-11 09:44:00,61.5,52.0,29.90,South,180,1.6,1.6,71,0.00,CLR,,0.00,WeatherDisplay:10.37,2013-09-11 16:44:00,
2013-09-11 09:49:00,61.5,51.6,29.90,South,180,1.2,1.2,70,0.00,CLR,,0.00,WeatherDisplay:10.37,2013-09-11 16:49:00,
2013-09-11 09:54:00,61.7,51.8,29.90,SE,135,1.2,0.0,70,0.00,CLR,,0.00,WeatherDisplay:10.37,2013-09-11 16:54:00,
2013-09-11 09:59:00,61.7,51.4,29.90,South,180,1.2,0.0,69,0.00,CLR,,0.00,WeatherDisplay:10.37,2013-09-11 16:59:00,
2013-09-11 10:04:00,61.9,51.2,29.90,South,180,3.5,3.5,68,0.00,CLR,,0.00,WeatherDisplay:10.37,2013-09-11 17:04:00,
2013-09-11 10:09:00,61.7,51.4,29.91,South,180,2.3,2.3,69,0.00,CLR,,0.00,WeatherDisplay:10.37,2013-09-11 17:09:00,
2013-09-11 10:14:00,61.9,52.0,29.91,South,180,2.3,2.3,70,0.00,CLR,,0.00,WeatherDisplay:10.37,2013-09-11 17:14:00,
2013-09-11 10:19:00,62.1,52.2,29.91,South,180,3.5,3.5,70,0.00,CLR,,0.00,WeatherDisplay:10.37,2013-09-11 17:19:00,
2013-09-11 10:24:00,62.2,51.9,29.91,SW,225,2.3,2.3,69,0.00,CLR,,0.00,WeatherDisplay:10.37,2013-09-11 17:24:00,
2013-09-11 10:30:00,62.4,51.7,29.91,SE,135,1.2,0.0,68,0.00,CLR,,0.00,WeatherDisplay:10.37,2013-09-11 17:30:00,
2013-09-11 10:35:00,63.0,52.2,29.91,SE,135,2.3,2.3,68,0.00,CLR,,0.00,WeatherDisplay:10.37,2013-09-11 17:35:00,
2013-09-11 10:40:00,63.0,51.8,29.91,SW,225,3.5,3.5,67,0.00,CLR,,0.00,WeatherDisplay:10.37,2013-09-11 17:40:00,
2013-09-11 10:45:00,63.1,52.4,29.91,South,180,2.3,2.3,68,0.00,CLR,,0.00,WeatherDisplay:10.37,2013-09-11 17:45:00,
2013-09-11 10:50:00,63.5,52.3,29.91,SW,225,3.5,3.5,67,0.00,CLR,,0.00,WeatherDisplay:10.37,2013-09-11 17:50:00,
2013-09-11 10:55:00,64.0,52.4,29.91,SE,135,2.3,2.3,66,0.00,CLR,,0.00,WeatherDisplay:10.37,2013-09-11 17:55:00,
2013-09-11 11:00:00,64.4,52.8,29.91,South,180,2.3,0.0,66,0.00,CLR,,0.00,WeatherDisplay:10.37,2013-09-11 18:00:00,
2013-09-11 11:05:00,64.9,52.5,29.91,NW,315,2.3,2.3,64,0.00,CLR,,0.00,WeatherDisplay:10.37,2013-09-11 18:05:00,
2013-09-11 11:10:00,64.9,52.0,29.91,SW,225,6.9,6.9,63,0.00,CLR,,0.00,WeatherDisplay:10.37,2013-09-11 18:10:00,
2013-09-11 11:15:00,64.9,52.5,29.91,SW,225,3.5,3.5,64,0.00,CLR,,0.00,WeatherDisplay:10.37,2013-09-11 18:15:00,
2013-09-11 11:20:00,65.7,53.1,29.91,West,270,3.5,3.5,64,0.00,CLR,,0.00,WeatherDisplay:10.37,2013-09-11 18:20:00,
2013-09-11 11:25:00,66.0,53.1,29.91,South,180,3.5,3.5,63,0.00,CLR,,0.00,WeatherDisplay:10.37,2013-09-11 18:25:00,
2013-09-11 11:30:00,65.7,52.3,29.91,SW,225,3.5,3.5,62,0.00,CLR,,0.00,WeatherDisplay:10.37,2013-09-11 18:30:00,
2013-09-11 11:35:00,65.8,52.9,29.91,SW,225,2.3,2.3,63,0.00,CLR,,0.00,WeatherDisplay:10.37,2013-09-11 18:35:00,
2013-09-11 11:40:00,66.4,53.0,29.91,SE,135,3.5,3.5,62,0.00,CLR,,0.00,WeatherDisplay:10.37,2013-09-11 18:40:00,
2013-09-11 11:45:00,67.3,53.4,29.91,SW,225,1.2,1.2,61,0.00,CLR,,0.00,WeatherDisplay:10.37,2013-09-11 18:45:00,
2013-09-11 11:50:00,67.5,52.6,29.91,South,180,3.5,3.5,59,0.00,CLR,,0.00,WeatherDisplay:10.37,2013-09-11 18:50:00,
2013-09-11 11:55:00,67.5,52.6,29.92,SW,225,3.5,0.0,59,0.00,CLR,,0.00,WeatherDisplay:10.37,2013-09-11 18:55:00,
2013-09-11 12:00:00,68.0,53.1,29.91,South,180,1.2,1.2,59,0.00,CLR,,0.00,WeatherDisplay:10.37,2013-09-11 19:00:00,
2013-09-11 12:05:00,68.5,53.6,29.91,SE,135,2.3,0.0,59,0.00,CLR,,0.00,WeatherDisplay:10.37,2013-09-11 19:05:00,
2013-09-11 12:10:00,68.9,54.0,29.91,South,180,1.2,1.2,59,0.00,CLR,,0.00,WeatherDisplay:10.37,2013-09-11 19:10:00,
2013-09-11 12:15:00,69.1,53.2,29.91,South,180,3.5,3.5,57,0.00,CLR,,0.00,WeatherDisplay:10.37,2013-09-11 19:15:00,
2013-09-11 12:20:00,68.7,53.3,29.92,SW,225,3.5,3.5,58,0.00,CLR,,0.00,WeatherDisplay:10.37,2013-09-11 19:20:00,
2013-09-11 12:25:00,68.9,53.5,29.92,West,270,3.5,3.5,58,0.00,CLR,,0.00,WeatherDisplay:10.37,2013-09-11 19:25:00,
2013-09-11 12:30:00,69.4,53.5,29.92,NE,45,2.3,0.0,57,0.00,CLR,,0.00,WeatherDisplay:10.37,2013-09-11 19:30:00,
2013-09-11 12:35:00,70.0,53.6,29.91,East,90,1.2,2.2,56,0.00,CLR,,0.00,WeatherDisplay:10.37,2013-09-11 19:35:00,
2013-09-11 12:40:00,69.6,52.7,29.91,SW,225,2.3,2.3,55,0.00,CLR,,0.00,WeatherDisplay:10.37,2013-09-11 19:40:00,
2013-09-11 12:45:00,69.6,53.2,29.91,SW,225,3.5,3.5,56,0.00,CLR,,0.00,WeatherDisplay:10.37,2013-09-11 19:45:00,
2013-09-11 12:50:00,70.3,52.9,29.91,NW,315,5.8,5.8,54,0.00,CLR,,0.00,WeatherDisplay:10.37,2013-09-11 19:50:00,
2013-09-11 12:55:00,71.1,53.1,29.91,SW,225,2.3,0.0,53,0.00,CLR,,0.00,WeatherDisplay:10.37,2013-09-11 19:55:00,
2013-09-11 13:00:00,72.0,53.4,29.92,North,0,3.5,3.5,52,0.00,CLR,,0.00,WeatherDisplay:10.37,2013-09-11 20:00:00,
2013-09-11 13:05:00,72.0,51.8,29.91,SW,225,5.8,5.8,49,0.00,CLR,,0.00,WeatherDisplay:10.37,2013-09-11 20:05:00,
2013-09-11 13:10:00,71.2,52.7,29.92,SW,225,3.5,3.5,52,0.00,CLR,,0.00,WeatherDisplay:10.37,2013-09-11 20:10:00,
2013-09-11 13:15:00,71.4,52.3,29.92,SW,225,3.5,3.8,51,0.00,CLR,,0.00,WeatherDisplay:10.37,2013-09-11 20:15:00,
2013-09-11 13:20:00,71.8,52.7,29.92,West,270,5.8,5.8,51,0.00,CLR,,0.00,WeatherDisplay:10.37,2013-09-11 20:20:00,
2013-09-11 13:25:00,72.7,53.0,29.91,West,270,2.3,2.3,50,0.00,CLR,,0.00,WeatherDisplay:10.37,2013-09-11 20:25:00,
2013-09-11 13:31:00,73.6,52.7,29.91,NE,45,3.5,3.5,48,0.00,CLR,,0.00,WeatherDisplay:10.37,2013-09-11 20:31:00,
2013-09-11 13:36:00,73.4,51.9,29.91,South,180,8.1,8.1,47,0.00,CLR,,0.00,WeatherDisplay:10.37,2013-09-11 20:36:00,
2013-09-11 13:41:00,73.6,52.7,29.91,South,180,8.1,8.1,48,0.00,CLR,,0.00,WeatherDisplay:10.37,2013-09-11 20:41:00,
2013-09-11 13:46:00,73.4,51.9,29.92,West,270,5.8,5.8,47,0.00,CLR,,0.00,WeatherDisplay:10.37,2013-09-11 20:46:00,
2013-09-11 13:51:00,73.6,52.1,29.91,SW,225,3.5,3.5,47,0.00,CLR,,0.00,WeatherDisplay:10.37,2013-09-11 20:51:00,
2013-09-11 13:56:00,73.6,52.1,29.91,West,270,5.8,5.8,47,0.00,CLR,,0.00,WeatherDisplay:10.37,2013-09-11 20:56:00,
2013-09-11 14:01:00,73.6,53.2,29.91,SW,225,8.1,8.1,49,0.00,CLR,,0.00,WeatherDisplay:10.37,2013-09-11 21:01:00,
2013-09-11 14:06:00,73.8,52.3,29.91,West,270,3.5,3.5,47,0.00,CLR,,0.00,WeatherDisplay:10.37,2013-09-11 21:06:00,
2013-09-11 14:11:00,73.9,52.4,29.92,North,0,3.5,3.5,47,0.00,CLR,,0.00,WeatherDisplay:10.37,2013-09-11 21:11:00,
2013-09-11 14:16:00,74.5,52.3,29.92,SW,225,3.5,3.5,46,0.00,CLR,,0.00,WeatherDisplay:10.37,2013-09-11 21:16:00,
2013-09-11 14:21:00,73.6,52.7,29.91,SW,225,9.2,9.2,48,0.00,CLR,,0.00,WeatherDisplay:10.37,2013-09-11 21:21:00,
2013-09-11 14:26:00,74.1,52.0,29.91,SW,225,5.8,5.8,46,0.00,CLR,,0.00,WeatherDisplay:10.37,2013-09-11 21:26:00,
2013-09-11 14:31:00,74.5,52.3,29.91,SW,225,5.8,5.8,46,0.00,CLR,,0.00,WeatherDisplay:10.37,2013-09-11 21:31:00,
2013-09-11 14:36:00,73.4,51.9,29.91,SW,225,12.7,12.7,47,0.00,CLR,,0.00,WeatherDisplay:10.37,2013-09-11 21:36:00,
2013-09-11 14:41:00,72.7,52.4,29.91,South,180,3.5,3.8,49,0.00,CLR,,0.00,WeatherDisplay:10.37,2013-09-11 21:41:00,
2013-09-11 14:46:00,72.5,52.2,29.91,SW,225,13.8,13.8,49,0.00,CLR,,0.00,WeatherDisplay:10.37,2013-09-11 21:46:00,
2013-09-11 14:51:00,73.0,52.7,29.91,West,270,5.8,5.8,49,0.00,CLR,,0.00,WeatherDisplay:10.37,2013-09-11 21:51:00,
2013-09-11 14:57:00,74.1,52.0,29.91,NW,315,5.8,5.8,46,0.00,CLR,,0.00,WeatherDisplay:10.37,2013-09-11 21:57:00,
2013-09-11 15:02:00,75.0,52.2,29.91,West,270,6.9,6.9,45,0.00,CLR,,0.00,WeatherDisplay:10.37,2013-09-11 22:02:00,
2013-09-11 15:07:00,74.5,51.7,29.91,SW,225,11.5,11.5,45,0.00,CLR,,0.00,WeatherDisplay:10.37,2013-09-11 22:07:00,
2013-09-11 15:12:00,74.8,51.5,29.91,South,180,10.4,10.4,44,0.00,CLR,,0.00,WeatherDisplay:10.37,2013-09-11 22:12:00,
2013-09-11 15:17:00,73.8,51.1,29.91,SSW,202,12.7,12.7,45,0.00,CLR,,0.00,WeatherDisplay:10.37,2013-09-11 22:17:00,
2013-09-11 15:22:00,73.4,51.9,29.91,SW,225,5.8,5.8,47,0.00,CLR,,0.00,WeatherDisplay:10.37,2013-09-11 22:22:00,
2013-09-11 15:27:00,72.9,51.4,29.91,SW,225,8.1,8.1,47,0.00,CLR,,0.00,WeatherDisplay:10.37,2013-09-11 22:27:00,
2013-09-11 15:32:00,72.0,51.2,29.91,SW,225,9.2,9.2,48,0.00,CLR,,0.00,WeatherDisplay:10.37,2013-09-11 22:32:00,
2013-09-11 15:37:00,71.2,52.2,29.91,SW,225,10.4,10.4,51,0.00,CLR,,0.00,WeatherDisplay:10.37,2013-09-11 22:37:00,
2013-09-11 15:42:00,70.3,51.9,29.91,South,180,17.3,17.3,52,0.00,CLR,,0.00,WeatherDisplay:10.37,2013-09-11 22:42:00,
2013-09-11 15:47:00,69.6,51.7,29.91,West,270,10.4,10.4,53,0.00,CLR,,0.00,WeatherDisplay:10.37,2013-09-11 22:47:00,
2013-09-11 15:52:00,69.3,51.4,29.92,West,270,9.2,9.2,53,0.00,CLR,,0.00,WeatherDisplay:10.37,2013-09-11 22:52:00,
2013-09-11 15:57:00,69.1,51.7,29.91,SW,225,9.2,9.2,54,0.00,CLR,,0.00,WeatherDisplay:10.37,2013-09-11 22:57:00,
2013-09-11 16:02:00,68.9,51.6,29.91,West,270,5.8,5.8,54,0.00,CLR,,0.00,WeatherDisplay:10.37,2013-09-11 23:02:00,
2013-09-11 16:07:00,68.9,52.1,29.92,SW,225,8.1,8.1,55,0.00,CLR,,0.00,WeatherDisplay:10.37,2013-09-11 23:07:00,
2013-09-11 16:12:00,68.5,51.7,29.92,West,270,10.4,10.4,55,0.00,CLR,,0.00,WeatherDisplay:10.37,2013-09-11 23:12:00,
2013-09-11 16:17:00,68.5,52.2,29.91,SW,225,12.7,12.7,56,0.00,CLR,,0.00,WeatherDisplay:10.37,2013-09-11 23:17:00,
2013-09-11 16:22:00,68.7,51.9,29.92,SW,225,6.9,6.9,55,0.00,CLR,,0.00,WeatherDisplay:10.37,2013-09-11 23:22:00,
2013-09-11 16:27:00,68.5,51.2,29.92,SW,225,10.4,10.4,54,0.00,CLR,,0.00,WeatherDisplay:10.37,2013-09-11 23:27:00,
2013-09-11 16:32:00,67.5,52.2,29.92,SW,225,12.7,12.7,58,0.00,CLR,,0.00,WeatherDisplay:10.37,2013-09-11 23:32:00,
2013-09-11 16:37:00,67.5,52.2,29.92,SW,225,19.6,19.6,58,0.00,CLR,,0.00,WeatherDisplay:10.37,2013-09-11 23:37:00,
2013-09-11 16:42:00,67.1,52.7,29.92,SW,225,8.1,8.1,60,0.00,CLR,,0.00,WeatherDisplay:10.37,2013-09-11 23:42:00,
2013-09-11 16:47:00,67.5,52.6,29.92,SW,225,12.7,12.7,59,0.00,CLR,,0.00,WeatherDisplay:10.37,2013-09-11 23:47:00,
2013-09-11 16:52:00,67.5,52.2,29.93,South,180,8.1,8.1,58,0.00,CLR,,0.00,WeatherDisplay:10.37,2013-09-11 23:52:00,
2013-09-11 16:58:00,67.8,52.0,29.92,SW,225,8.1,8.1,57,0.00,CLR,,0.00,WeatherDisplay:10.37,2013-09-11 23:58:00,
2013-09-11 17:03:00,68.0,52.2,29.92,SW,225,8.1,8.1,57,0.00,CLR,,0.00,WeatherDisplay:10.37,2013-09-12 00:03:00,
2013-09-11 17:08:00,67.1,51.8,29.92,SW,225,12.7,12.7,58,0.00,CLR,,0.00,WeatherDisplay:10.37,2013-09-12 00:08:00,
2013-09-11 17:13:00,66.7,52.4,29.92,West,270,5.8,5.8,60,0.00,CLR,,0.00,WeatherDisplay:10.37,2013-09-12 00:13:00,
2013-09-11 17:18:00,66.9,52.1,29.92,SW,225,10.4,10.4,59,0.00,CLR,,0.00,WeatherDisplay:10.37,2013-09-12 00:18:00,
2013-09-11 17:23:00,66.0,51.7,29.92,SW,225,17.3,17.3,60,0.00,CLR,,0.00,WeatherDisplay:10.37,2013-09-12 00:23:00,
2013-09-11 17:28:00,65.1,51.8,29.92,SW,225,10.4,10.4,62,0.00,CLR,,0.00,WeatherDisplay:10.37,2013-09-12 00:28:00,
2013-09-11 17:33:00,65.3,52.4,29.92,SSW,202,8.1,9.8,63,0.00,CLR,,0.00,WeatherDisplay:10.37,2013-09-12 00:33:00,
2013-09-11 17:38:00,65.1,51.8,29.92,SW,225,15.0,15.0,62,0.00,CLR,,0.00,WeatherDisplay:10.37,2013-09-12 00:38:00,
2013-09-11 17:43:00,65.5,52.5,29.92,SW,225,5.8,5.8,63,0.00,CLR,,0.00,WeatherDisplay:10.37,2013-09-12 00:43:00,
2013-09-11 17:48:00,65.7,51.8,29.93,West,270,11.5,11.5,61,0.00,CLR,,0.00,WeatherDisplay:10.37,2013-09-12 00:48:00,
2013-09-11 17:53:00,65.3,51.9,29.93,West,270,5.8,5.8,62,0.00,CLR,,0.00,WeatherDisplay:10.37,2013-09-12 00:53:00,
2013-09-11 17:58:00,64.9,51.6,29.93,South,180,8.1,8.1,62,0.00,CLR,,0.00,WeatherDisplay:10.37,2013-09-12 00:58:00,
2013-09-11 18:03:00,64.8,51.9,29.93,West,270,12.7,12.7,63,0.00,CLR,,0.00,WeatherDisplay:10.37,2013-09-12 01:03:00,
2013-09-11 18:08:00,64.6,52.1,29.93,South,180,8.1,8.1,64,0.00,CLR,,0.00,WeatherDisplay:10.37,2013-09-12 01:08:00,
2013-09-11 18:13:00,64.4,52.0,29.93,SW,225,15.0,15.0,64,0.00,CLR,,0.00,WeatherDisplay:10.37,2013-09-12 01:13:00,
2013-09-11 18:18:00,64.6,52.1,29.93,SW,225,11.5,11.5,64,0.00,CLR,,0.00,WeatherDisplay:10.37,2013-09-12 01:18:00,
2013-09-11 18:23:00,64.4,52.0,29.93,NW,315,9.2,9.2,64,0.00,CLR,,0.00,WeatherDisplay:10.37,2013-09-12 01:23:00,
2013-09-11 18:28:00,64.2,51.8,29.93,SW,225,10.4,10.4,64,0.00,CLR,,0.00,WeatherDisplay:10.37,2013-09-12 01:28:00,
2013-09-11 18:33:00,64.0,51.6,29.93,West,270,9.2,9.2,64,0.00,CLR,,0.00,WeatherDisplay:10.37,2013-09-12 01:33:00,
2013-09-11 18:38:00,63.9,51.9,29.93,SW,225,6.9,6.9,65,0.00,CLR,,0.00,WeatherDisplay:10.37,2013-09-12 01:38:00,
2013-09-11 18:43:00,63.7,51.7,29.93,SW,225,6.9,6.9,65,0.00,CLR,,0.00,WeatherDisplay:10.37,2013-09-12 01:43:00,
2013-09-11 18:48:00,63.5,51.9,29.93,South,180,10.4,10.4,66,0.00,CLR,,0.00,WeatherDisplay:10.37,2013-09-12 01:48:00,
2013-09-11 18:53:00,63.5,51.9,29.93,West,270,3.5,3.5,66,0.00,CLR,,0.00,WeatherDisplay:10.37,2013-09-12 01:53:00,
2013-09-11 18:58:00,63.5,51.9,29.93,South,180,10.4,10.4,66,0.00,CLR,,0.00,WeatherDisplay:10.37,2013-09-12 01:58:00,
2013-09-11 19:03:00,63.3,51.8,29.93,South,180,4.6,4.6,66,0.00,CLR,,0.00,WeatherDisplay:10.37,2013-09-12 02:03:00,
2013-09-11 19:08:00,63.3,52.2,29.93,South,180,9.2,9.2,67,0.00,CLR,,0.00,WeatherDisplay:10.37,2013-09-12 02:08:00,
2013-09-11 19:13:00,63.1,52.0,29.93,South,180,8.1,8.1,67,0.00,CLR,,0.00,WeatherDisplay:10.37,2013-09-12 02:13:00,
2013-09-11 19:18:00,63.0,51.8,29.93,SW,225,9.2,9.2,67,0.00,CLR,,0.00,WeatherDisplay:10.37,2013-09-12 02:18:00,
2013-09-11 19:23:00,62.8,52.1,29.93,West,270,9.2,9.2,68,0.00,CLR,,0.00,WeatherDisplay:10.37,2013-09-12 02:23:00,
2013-09-11 19:28:00,62.8,52.1,29.93,SW,225,9.2,9.2,68,0.00,CLR,,0.00,WeatherDisplay:10.37,2013-09-12 02:28:00,
2013-09-11 19:33:00,62.8,52.1,29.93,SW,225,5.8,5.8,68,0.00,CLR,,0.00,WeatherDisplay:10.37,2013-09-12 02:33:00,
2013-09-11 19:38:00,62.6,51.9,29.93,South,180,5.8,5.8,68,0.00,CLR,,0.00,WeatherDisplay:10.37,2013-09-12 02:38:00,
2013-09-11 19:43:00,62.6,51.9,29.93,SW,225,5.8,5.8,68,0.00,CLR,,0.00,WeatherDisplay:10.37,2013-09-12 02:43:00,
2013-09-11 19:48:00,62.4,52.1,29.93,SW,225,9.2,9.2,69,0.00,CLR,,0.00,WeatherDisplay:10.37,2013-09-12 02:48:00,
2013-09-11 19:54:00,62.4,52.1,29.93,SW,225,6.9,6.9,69,0.00,CLR,,0.00,WeatherDisplay:10.37,2013-09-12 02:54:00,
2013-09-11 19:59:00,62.4,52.1,29.94,SW,225,8.1,8.1,69,0.00,CLR,,0.00,WeatherDisplay:10.37,2013-09-12 02:59:00,
2013-09-11 20:04:00,62.4,52.1,29.94,SW,225,3.5,3.5,69,0.00,CLR,,0.00,WeatherDisplay:10.37,2013-09-12 03:04:00,
2013-09-11 20:09:00,62.4,52.1,29.94,SSW,202,5.8,5.8,69,0.00,CLR,,0.00,WeatherDisplay:10.37,2013-09-12 03:09:00,
2013-09-11 20:14:00,62.4,52.1,29.94,SW,225,5.8,5.8,69,0.00,CLR,,0.00,WeatherDisplay:10.37,2013-09-12 03:14:00,
2013-09-11 20:19:00,62.4,52.1,29.94,SW,225,2.3,0.0,69,0.00,CLR,,0.00,WeatherDisplay:10.37,2013-09-12 03:19:00,
2013-09-11 20:24:00,62.4,52.1,29.94,SW,225,4.6,4.6,69,0.00,CLR,,0.00,WeatherDisplay:10.37,2013-09-12 03:24:00,
2013-09-11 20:29:00,62.4,52.1,29.93,SW,225,3.5,3.5,69,0.00,CLR,,0.00,WeatherDisplay:10.37,2013-09-12 03:29:00,
2013-09-11 20:34:00,62.4,52.1,29.94,SW,225,3.5,0.0,69,0.00,CLR,,0.00,WeatherDisplay:10.37,2013-09-12 03:34:00,
2013-09-11 20:39:00,62.4,52.1,29.94,SW,225,4.6,4.6,69,0.00,CLR,,0.00,WeatherDisplay:10.37,2013-09-12 03:39:00,
2013-09-11 20:44:00,62.4,52.1,29.94,South,180,3.5,3.5,69,0.00,CLR,,0.00,WeatherDisplay:10.37,2013-09-12 03:44:00,
2013-09-11 20:49:00,62.4,52.1,29.95,SW,225,3.5,0.0,69,0.00,CLR,,0.00,WeatherDisplay:10.37,2013-09-12 03:49:00,
2013-09-11 20:54:00,62.4,52.5,29.95,SW,225,3.8,3.8,70,0.00,CLR,,0.00,WeatherDisplay:10.37,2013-09-12 03:54:00,
2013-09-11 20:59:00,62.6,52.3,29.95,South,180,3.5,3.5,69,0.00,CLR,,0.00,WeatherDisplay:10.37,2013-09-12 03:59:00,
2013-09-11 21:01:00,62.4,52.1,29.95,South,180,2.3,2.3,69,0.00,CLR,,0.00,WeatherDisplay:10.37,2013-09-12 04:01:00,
2013-09-11 21:03:00,62.4,52.1,29.95,South,180,3.5,0.0,69,0.00,CLR,,0.00,WeatherDisplay:10.37,2013-09-12 04:03:00,
2013-09-11 21:04:00,62.4,52.1,29.95,South,180,2.3,2.3,69,0.00,CLR,,0.00,WeatherDisplay:10.37,2013-09-12 04:04:00,
2013-09-11 21:09:00,62.4,52.1,29.95,South,180,3.5,3.5,69,0.00,CLR,,0.00,WeatherDisplay:10.37,2013-09-12 04:09:00,
2013-09-11 21:14:00,62.4,52.5,29.95,South,180,1.2,1.6,70,0.00,CLR,,0.00,WeatherDisplay:10.37,2013-09-12 04:14:00,
2013-09-11 21:19:00,62.4,52.1,29.95,SW,225,5.8,5.8,69,0.00,CLR,,0.00,WeatherDisplay:10.37,2013-09-12 04:19:00,
2013-09-11 21:24:00,62.4,52.5,29.95,South,180,5.8,5.8,70,0.00,CLR,,0.00,WeatherDisplay:10.37,2013-09-12 04:24:00,
2013-09-11 21:29:00,62.4,52.5,29.95,West,270,5.8,5.8,70,0.00,CLR,,0.00,WeatherDisplay:10.37,2013-09-12 04:29:00,
2013-09-11 21:34:00,62.4,52.5,29.95,South,180,5.8,5.8,70,0.00,CLR,,0.00,WeatherDisplay:10.37,2013-09-12 04:34:00,
2013-09-11 21:39:00,62.2,52.3,29.95,SW,225,3.5,3.5,70,0.00,CLR,,0.00,WeatherDisplay:10.37,2013-09-12 04:39:00,
2013-09-11 21:44:00,62.2,52.3,29.95,SW,225,3.5,3.5,70,0.00,CLR,,0.00,WeatherDisplay:10.37,2013-09-12 04:44:00,
2013-09-11 21:49:00,62.2,52.3,29.95,South,180,1.6,1.6,70,0.00,CLR,,0.00,WeatherDisplay:10.37,2013-09-12 04:49:00,
2013-09-11 21:54:00,62.2,52.3,29.95,South,180,1.2,0.0,70,0.00,CLR,,0.00,WeatherDisplay:10.37,2013-09-12 04:54:00,
2013-09-11 21:59:00,62.2,52.3,29.95,SSE,158,2.3,2.3,70,0.00,CLR,,0.00,WeatherDisplay:10.37,2013-09-12 04:59:00,
2013-09-11 22:04:00,62.2,52.3,29.95,South,180,2.3,0.0,70,0.00,CLR,,0.00,WeatherDisplay:10.37,2013-09-12 05:04:00,
2013-09-11 22:09:00,62.2,52.3,29.95,South,180,1.2,1.2,70,0.00,CLR,,0.00,WeatherDisplay:10.37,2013-09-12 05:09:00,
2013-09-11 22:14:00,62.2,52.3,29.95,South,180,1.2,0.0,70,0.00,CLR,,0.00,WeatherDisplay:10.37,2013-09-12 05:14:00,
2013-09-11 22:19:00,62.2,52.3,29.95,South,180,1.2,1.2,70,0.00,CLR,,0.00,WeatherDisplay:10.37,2013-09-12 05:19:00,
2013-09-11 22:24:00,62.2,52.3,29.95,SW,225,1.2,0.0,70,0.00,CLR,,0.00,WeatherDisplay:10.37,2013-09-12 05:24:00,
2013-09-11 22:29:00,62.2,52.3,29.96,SW,225,2.3,2.3,70,0.00,CLR,,0.00,WeatherDisplay:10.37,2013-09-12 05:29:00,
2013-09-11 22:34:00,62.2,52.7,29.96,West,270,1.2,0.0,71,0.00,CLR,,0.00,WeatherDisplay:10.37,2013-09-12 05:34:00,
2013-09-11 22:39:00,62.2,52.7,29.96,South,180,0.0,0.0,71,0.00,CLR,,0.00,WeatherDisplay:10.37,2013-09-12 05:39:00,
2013-09-11 22:44:00,62.1,52.5,29.95,SW,225,1.2,0.0,71,0.00,CLR,,0.00,WeatherDisplay:10.37,2013-09-12 05:44:00,
2013-09-11 22:49:00,62.1,52.5,29.95,SW,225,1.2,0.0,71,0.00,CLR,,0.00,WeatherDisplay:10.37,2013-09-12 05:49:00,
2013-09-11 22:54:00,62.1,52.5,29.95,SW,225,1.2,1.2,71,0.00,CLR,,0.00,WeatherDisplay:10.37,2013-09-12 05:54:00,
2013-09-11 22:59:00,62.1,52.5,29.95,SW,225,1.2,1.2,71,0.00,CLR,,0.00,WeatherDisplay:10.37,2013-09-12 05:59:00,
2013-09-11 23:04:00,62.1,52.5,29.95,SW,225,1.2,1.2,71,0.00,CLR,,0.00,WeatherDisplay:10.37,2013-09-12 06:04:00,
2013-09-11 23:09:00,62.1,52.9,29.95,SW,225,2.3,2.3,72,0.00,CLR,,0.00,WeatherDisplay:10.37,2013-09-12 06:09:00,
2013-09-11 23:14:00,61.9,52.8,29.95,SW,225,2.3,2.3,72,0.00,CLR,,0.00,WeatherDisplay:10.37,2013-09-12 06:14:00,
2013-09-11 23:19:00,61.9,52.8,29.96,SW,225,1.2,1.2,72,0.00,CLR,,0.00,WeatherDisplay:10.37,2013-09-12 06:19:00,
2013-09-11 23:24:00,61.9,52.8,29.95,South,180,3.5,3.5,72,0.00,CLR,,0.00,WeatherDisplay:10.37,2013-09-12 06:24:00,
2013-09-11 23:29:00,61.9,52.8,29.95,SW,225,2.3,2.3,72,0.00,CLR,,0.00,WeatherDisplay:10.37,2013-09-12 06:29:00,
2013-09-11 23:34:00,61.9,52.8,29.96,SW,225,2.3,2.3,72,0.00,CLR,,0.00,WeatherDisplay:10.37,2013-09-12 06:34:00,
2013-09-11 23:39:00,61.9,52.8,29.95,SW,225,3.5,3.5,72,0.00,CLR,,0.00,WeatherDisplay:10.37,2013-09-12 06:39:00,
2013-09-11 23:44:00,61.9,52.8,29.96,SW,225,3.5,3.5,72,0.00,CLR,,0.00,WeatherDisplay:10.37,2013-09-12 06:44:00,
2013-09-11 23:49:00,61.9,52.8,29.95,SW,225,4.6,4.6,72,0.00,CLR,,0.00,WeatherDisplay:10.37,2013-09-12 06:49:00,
2013-09-11 23:54:00,61.9,52.8,29.96,SW,225,3.5,3.5,72,0.00,CLR,,0.00,WeatherDisplay:10.37,2013-09-12 06:54:00,
2013-09-11 23:59:00,61.9,52.8,29.96,SW,225,3.5,3.5,72,0.00,CLR,,0.00,WeatherDisplay:10.37,2013-09-12 06:59:00,